| time (UTC) | temp C | wind direction | speed KPH | gust KPH | rain 1hr cm | rain 24hr cm | rain mn cm | humidity % | barometer mb |
| 20260905035448 | 13 | 103 | 0.0 | 0.0 | 0.00 | 0.23 | 0.10 | 89 | 1014.3 |
| 20260905034419 | 13 | 103 | 0.0 | 0.0 | 0.00 | 0.23 | 0.10 | 89 | 1014.2 |
| 20260905033410 | 13 | 102 | 0.0 | 0.0 | 0.00 | 0.23 | 0.10 | 88 | 1014.2 |
| 20260905032400 | 13 | 103 | 0.0 | 0.0 | 0.00 | 0.23 | 0.10 | 87 | 1014.1 |
| 20260905031346 | 13 | 104 | 0.0 | 0.0 | 0.00 | 0.23 | 0.10 | 85 | 1014.1 |
| 20260905030339 | 13 | 104 | 0.0 | 0.0 | 0.00 | 0.23 | 0.10 | 84 | 1013.8 |
| 20260905025332 | 14 | 104 | 0.0 | 0.0 | 0.00 | 0.23 | 0.10 | 83 | 1014.0 |
| 20260905024304 | 14 | 101 | 0.0 | 0.0 | 0.00 | 0.23 | 0.10 | 84 | 1013.7 |
| 20260905023302 | 14 | 100 | 0.0 | 0.0 | 0.00 | 0.23 | 0.10 | 82 | 1013.5 |
| 20260905022248 | 15 | 101 | 0.0 | 0.0 | 0.00 | 0.23 | 0.10 | 82 | 1013.5 |
| 20260905021237 | 15 | 99 | 0.0 | 0.0 | 0.00 | 0.23 | 0.10 | 79 | 1013.7 |
| 20260905020229 | 15 | 109 | 0.0 | 0.0 | 0.00 | 0.23 | 0.10 | 78 | 1013.6 |
| 20260905015222 | 15 | 107 | 0.0 | 0.0 | 0.00 | 0.23 | 0.10 | 78 | 1013.7 |
| 20260905014204 | 16 | 106 | 0.0 | 0.0 | 0.00 | 0.33 | 0.10 | 76 | 1013.6 |
| 20260905013159 | 16 | 107 | 0.0 | 0.0 | 0.00 | 0.43 | 0.10 | 75 | 1013.5 |
| 20260905012149 | 16 | 106 | 0.0 | 0.0 | 0.00 | 0.51 | 0.10 | 74 | 1013.5 |
| 20260905011128 | 16 | 107 | 0.0 | 0.0 | 0.00 | 0.61 | 0.10 | 72 | 1013.0 |
| 20260905010055 | 16 | 101 | 0.0 | 0.0 | 0.00 | 0.79 | 0.10 | 72 | 1012.9 |
| 20260905005045 | 16 | 104 | 0.0 | 0.0 | 0.00 | 0.97 | 0.10 | 70 | 1012.9 |
| 20260905004015 | 17 | 104 | 0.0 | 0.0 | 0.00 | 1.47 | 0.10 | 70 | 1012.9 |
| 20260905002943 | 17 | 98 | 0.0 | 0.0 | 0.00 | 2.26 | 0.10 | 69 | 1012.7 |
| 20260905001906 | 18 | 102 | 0.0 | 0.0 | 0.00 | 2.41 | 0.10 | 64 | 1012.9 |
| 20260905000900 | 18 | 105 | 0.0 | 0.0 | 0.00 | 2.57 | 0.10 | 62 | 1013.0 |
| 20260904235844 | 18 | 126 | 0.0 | 3.2 | 0.00 | 2.57 | 0.10 | 61 | 1013.0 |
| 20260904234821 | 19 | 106 | 0.0 | 0.0 | 0.00 | 2.57 | 0.10 | 62 | 1012.8 |
| 20260904233745 | 20 | 112 | 0.0 | 0.0 | 0.00 | 2.57 | 0.10 | 62 | 1012.9 |
| 20260904232733 | 20 | 106 | 0.0 | 0.0 | 0.03 | 2.57 | 0.10 | 63 | 1012.7 |
| 20260904231727 | 22 | 103 | 0.0 | 0.0 | 0.03 | 2.57 | 0.10 | 55 | 1012.8 |
| 20260904230721 | 21 | 105 | 0.0 | 0.0 | 0.03 | 2.57 | 0.10 | 57 | 1012.8 |
| 20260904225641 | 20 | 101 | 0.0 | 0.0 | 0.03 | 2.57 | 0.10 | 59 | 1012.4 |
| 20260904224614 | 20 | 109 | 0.0 | 0.0 | 0.03 | 2.57 | 0.10 | 66 | 1012.5 |
| 20260904223554 | 17 | 108 | 0.0 | 0.0 | 0.03 | 2.57 | 0.10 | 77 | 1012.3 |
| 20260904222553 | 17 | 108 | 0.0 | 0.0 | 0.00 | 2.54 | 0.08 | 78 | 1012.3 |
| 20260904221541 | 18 | 138 | 0.0 | 0.0 | 0.00 | 2.54 | 0.08 | 70 | 1012.4 |
| 20260904220530 | 18 | 107 | 0.0 | 0.0 | 0.00 | 2.54 | 0.08 | 67 | 1012.2 |
| 20260904215502 | 18 | 106 | 0.0 | 0.0 | 0.00 | 2.54 | 0.08 | 66 | 1012.1 |
| 20260904214439 | 18 | 101 | 0.0 | 0.0 | 0.00 | 2.54 | 0.08 | 69 | 1012.0 |
| 20260904213418 | 19 | 97 | 0.0 | 0.0 | 0.00 | 2.54 | 0.08 | 62 | 1012.1 |
| 20260904212408 | 20 | 119 | 0.0 | 0.0 | 0.00 | 2.54 | 0.08 | 59 | 1012.1 |
| 20260904211357 | 20 | 109 | 0.0 | 0.0 | 0.00 | 2.54 | 0.08 | 64 | 1011.9 |
| 20260904210345 | 20 | 102 | 0.0 | 0.0 | 0.00 | 2.54 | 0.08 | 61 | 1011.8 |
| 20260904205317 | 20 | 73 | 3.2 | 3.2 | 0.00 | 2.54 | 0.08 | 59 | 1012.0 |
| 20260904204313 | 18 | 315 | 1.6 | 3.2 | 0.00 | 2.54 | 0.08 | 64 | 1011.8 |
| 20260904203313 | 19 | 73 | 3.2 | 4.8 | 0.00 | 2.54 | 0.08 | 66 | 1012.2 |
| 20260904202244 | 18 | 96 | 1.6 | 3.2 | 0.00 | 2.54 | 0.08 | 67 | 1012.1 |
| 20260904201239 | 18 | 109 | 0.0 | 1.6 | 0.00 | 2.54 | 0.08 | 68 | 1012.2 |
| 20260904200216 | 18 | 79 | 1.6 | 3.2 | 0.00 | 2.54 | 0.08 | 69 | 1012.1 |
| 20260904195202 | 18 | 112 | 0.0 | 1.6 | 0.00 | 2.54 | 0.08 | 71 | 1012.1 |
| 20260904194133 | 18 | 80 | 1.6 | 1.6 | 0.00 | 2.54 | 0.08 | 71 | 1012.1 |
| 20260904193121 | 17 | 88 | 0.0 | 0.0 | 0.00 | 2.54 | 0.08 | 72 | 1012.3 |
| 20260904192056 | 18 | 136 | 1.6 | 3.2 | 0.00 | 2.54 | 0.08 | 70 | 1012.2 |
| 20260904191029 | 17 | 89 | 1.6 | 3.2 | 0.00 | 2.54 | 0.08 | 72 | 1011.9 |
| 20260904190028 | 17 | 109 | 0.0 | 0.0 | 0.00 | 2.54 | 0.08 | 72 | 1012.2 |
| 20260904185008 | 16 | 103 | 0.0 | 0.0 | 0.00 | 2.54 | 0.08 | 74 | 1012.1 |
| 20260904184007 | 17 | 105 | 0.0 | 0.0 | 0.00 | 2.54 | 0.08 | 72 | 1012.2 |
| 20260904182949 | 16 | 114 | 0.0 | 0.0 | 0.00 | 2.54 | 0.08 | 77 | 1012.4 |
| 20260904181912 | 16 | 108 | 0.0 | 0.0 | 0.00 | 2.54 | 0.08 | 81 | 1012.4 |
| 20260904180908 | 15 | 111 | 0.0 | 0.0 | 0.00 | 2.54 | 0.08 | 83 | 1012.3 |
| 20260904175858 | 15 | 84 | 3.2 | 3.2 | 0.00 | 2.54 | 0.08 | 87 | 1012.4 |
| 20260904174829 | 15 | 98 | 0.0 | 1.6 | 0.00 | 2.54 | 0.08 | 89 | 1012.3 |
| 20260904173819 | 14 | 100 | 0.0 | 0.0 | 0.00 | 2.54 | 0.08 | 93 | 1012.4 |
| 20260904172744 | 13 | 139 | 0.0 | 0.0 | 0.00 | 2.54 | 0.08 | 98 | 1012.5 |
| 20260904171715 | 13 | 115 | 0.0 | 1.6 | 0.00 | 2.54 | 0.08 | 99 | 1012.4 |
| 20260904170640 | 12 | 93 | 0.0 | 0.0 | 0.00 | 2.54 | 0.08 | 99 | 1012.4 |
| 20260904165611 | 12 | 95 | 0.0 | 0.0 | 0.00 | 2.54 | 0.08 | 99 | 1012.3 |
| 20260904164553 | 12 | 100 | 0.0 | 0.0 | 0.00 | 2.54 | 0.08 | 99 | 1012.6 |
| 20260904163538 | 12 | 102 | 0.0 | 0.0 | 0.00 | 2.54 | 0.08 | 99 | 1012.2 |
| 20260904162510 | 12 | 111 | 0.0 | 0.0 | 0.00 | 2.54 | 0.08 | 99 | 1012.4 |
| 20260904161443 | 12 | 106 | 0.0 | 0.0 | 0.00 | 2.54 | 0.08 | 99 | 1012.4 |
| 20260904160410 | 12 | 103 | 0.0 | 0.0 | 0.00 | 2.54 | 0.08 | 99 | 1012.3 |
| 20260904155346 | 12 | 103 | 0.0 | 0.0 | 0.00 | 2.54 | 0.08 | 99 | 1012.2 |
| 20260904154324 | 12 | 103 | 0.0 | 0.0 | 0.00 | 2.54 | 0.08 | 99 | 1012.1 |
| 20260904153320 | 11 | 103 | 0.0 | 0.0 | 0.00 | 2.54 | 0.08 | 99 | 1012.0 |
| 20260904152250 | 11 | 102 | 0.0 | 0.0 | 0.03 | 2.54 | 0.08 | 99 | 1012.0 |
| 20260904151244 | 11 | 104 | 0.0 | 0.0 | 0.03 | 2.54 | 0.08 | 99 | 1011.8 |
| 20260904150208 | 11 | 104 | 0.0 | 0.0 | 0.03 | 2.54 | 0.08 | 99 | 1011.7 |
| 20260904145200 | 11 | 104 | 0.0 | 0.0 | 0.05 | 2.54 | 0.08 | 99 | 1011.6 |
| 20260904144137 | 11 | 104 | 0.0 | 0.0 | 0.05 | 2.54 | 0.08 | 99 | 1011.6 |
| 20260904143116 | 11 | 104 | 0.0 | 0.0 | 0.05 | 2.57 | 0.08 | 99 | 1011.6 |
| 20260904142052 | 11 | 104 | 0.0 | 0.0 | 0.03 | 2.54 | 0.05 | 99 | 1011.4 |
| 20260904141041 | 11 | 104 | 0.0 | 0.0 | 0.03 | 2.54 | 0.05 | 99 | 1011.4 |
| 20260904140035 | 11 | 102 | 0.0 | 0.0 | 0.00 | 2.54 | 0.03 | 99 | 1011.2 |
| 20260904135015 | 11 | 104 | 0.0 | 0.0 | 0.00 | 2.57 | 0.03 | 99 | 1011.1 |
| 20260904133938 | 10 | 104 | 0.0 | 0.0 | 0.00 | 2.57 | 0.03 | 99 | 1011.0 |
| 20260904132928 | 11 | 104 | 0.0 | 0.0 | 0.00 | 2.59 | 0.03 | 99 | 1010.8 |
| 20260904131906 | 10 | 104 | 0.0 | 0.0 | 0.00 | 2.62 | 0.03 | 99 | 1010.8 |
| 20260904130845 | 11 | 104 | 0.0 | 0.0 | 0.00 | 2.62 | 0.03 | 99 | 1010.8 |
| 20260904125840 | 11 | 104 | 0.0 | 0.0 | 0.00 | 2.62 | 0.03 | 99 | 1010.5 |
| 20260904124826 | 11 | 104 | 0.0 | 0.0 | 0.03 | 2.64 | 0.03 | 99 | 1010.5 |
| 20260904123808 | 11 | 104 | 0.0 | 0.0 | 0.03 | 2.69 | 0.03 | 99 | 1010.8 |
| 20260904122758 | 11 | 104 | 0.0 | 0.0 | 0.03 | 2.69 | 0.03 | 99 | 1010.5 |
| 20260904121757 | 11 | 104 | 0.0 | 0.0 | 0.03 | 2.72 | 0.03 | 99 | 1010.4 |
| 20260904120745 | 11 | 104 | 0.0 | 0.0 | 0.03 | 2.72 | 0.03 | 99 | 1010.6 |
| 20260904115715 | 11 | 104 | 0.0 | 0.0 | 0.03 | 2.72 | 0.03 | 99 | 1010.3 |
| 20260904114659 | 11 | 104 | 0.0 | 0.0 | 0.00 | 2.69 | 0.00 | 99 | 1010.3 |
| 20260904113647 | 11 | 104 | 0.0 | 0.0 | 0.00 | 2.69 | 0.00 | 99 | 1010.0 |
| 20260904112625 | 11 | 104 | 0.0 | 0.0 | 0.00 | 2.69 | 0.00 | 99 | 1010.1 |
| 20260904111616 | 11 | 104 | 0.0 | 0.0 | 0.00 | 2.69 | 0.00 | 99 | 1010.0 |
| 20260904110610 | 11 | 104 | 0.0 | 0.0 | 0.00 | 2.69 | 0.00 | 99 | 1010.0 |
| 20260904105604 | 11 | 104 | 0.0 | 0.0 | 0.00 | 2.69 | 0.00 | 99 | 1009.9 |
| 20260904104552 | 11 | 104 | 0.0 | 0.0 | 0.00 | 2.69 | 0.00 | 99 | 1009.9 |
| 20260904103527 | 11 | 104 | 0.0 | 0.0 | 0.00 | 2.69 | 0.00 | 99 | 1009.8 |
| 20260904102505 | 11 | 104 | 0.0 | 0.0 | 0.00 | 2.69 | 0.00 | 99 | 1009.7 |
| 20260904101439 | 11 | 104 | 0.0 | 0.0 | 0.00 | 2.69 | 0.00 | 99 | 1009.6 |
| 20260904100435 | 11 | 104 | 0.0 | 0.0 | 0.00 | 2.69 | 0.00 | 99 | 1009.7 |
| 20260904095420 | 11 | 104 | 0.0 | 0.0 | 0.00 | 2.69 | 0.00 | 99 | 1009.7 |
| 20260904094409 | 11 | 104 | 0.0 | 0.0 | 0.00 | 2.69 | 0.00 | 99 | 1009.7 |
| 20260904093410 | 11 | 104 | 0.0 | 0.0 | 0.00 | 2.69 | 0.00 | 99 | 1009.6 |
| 20260904092356 | 11 | 104 | 0.0 | 0.0 | 0.00 | 2.69 | 0.00 | 99 | 1009.7 |
| 20260904091352 | 11 | 104 | 0.0 | 0.0 | 0.00 | 2.69 | 0.00 | 99 | 1009.7 |
| 20260904090322 | 11 | 104 | 0.0 | 0.0 | 0.00 | 2.69 | 0.00 | 99 | 1009.5 |
| 20260904085320 | 11 | 104 | 0.0 | 0.0 | 0.00 | 2.69 | 0.00 | 99 | 1009.6 |
| 20260904084318 | 11 | 105 | 0.0 | 0.0 | 0.00 | 2.69 | 0.00 | 99 | 1009.5 |
| 20260904083310 | 11 | 105 | 0.0 | 0.0 | 0.00 | 2.69 | 0.00 | 99 | 1009.6 |
| 20260904082306 | 11 | 105 | 0.0 | 0.0 | 0.00 | 2.69 | 0.00 | 99 | 1009.5 |
| 20260904081254 | 11 | 105 | 0.0 | 0.0 | 0.00 | 2.69 | 0.00 | 99 | 1009.7 |
| 20260904080253 | 11 | 105 | 0.0 | 0.0 | 0.00 | 2.69 | 0.00 | 99 | 1009.3 |
| 20260904075227 | 11 | 104 | 0.0 | 0.0 | 0.03 | 2.69 | 2.69 | 99 | 1009.7 |
| 20260904074157 | 11 | 109 | 0.0 | 0.0 | 0.05 | 2.69 | 2.69 | 99 | 1009.7 |
| 20260904073156 | 11 | 108 | 0.0 | 0.0 | 0.08 | 2.69 | 2.69 | 99 | 1009.7 |
| 20260904072151 | 11 | 108 | 0.0 | 0.0 | 0.08 | 2.69 | 2.69 | 99 | 1009.6 |
| 20260904071133 | 11 | 108 | 0.0 | 0.0 | 0.10 | 2.69 | 2.69 | 99 | 1009.7 |
| 20260904070123 | 11 | 108 | 0.0 | 0.0 | 0.10 | 2.69 | 2.69 | 99 | 1009.7 |
| 20260904065114 | 11 | 108 | 0.0 | 0.0 | 0.08 | 2.67 | 2.67 | 99 | 1009.6 |
| 20260904064112 | 11 | 109 | 0.0 | 0.0 | 0.05 | 2.64 | 2.64 | 99 | 1009.6 |
| 20260904063104 | 11 | 110 | 0.0 | 0.0 | 0.05 | 2.62 | 2.62 | 99 | 1009.8 |
| 20260904062052 | 11 | 110 | 0.0 | 0.0 | 0.05 | 2.62 | 2.62 | 99 | 1009.5 |
| 20260904061049 | 11 | 111 | 0.0 | 0.0 | 0.03 | 2.59 | 2.59 | 99 | 1009.6 |
| 20260904060040 | 11 | 110 | 0.0 | 0.0 | 0.03 | 2.59 | 2.59 | 99 | 1009.5 |
| 20260904055024 | 11 | 110 | 0.0 | 0.0 | 0.03 | 2.59 | 2.59 | 99 | 1009.5 |
| 20260904054016 | 11 | 110 | 0.0 | 0.0 | 0.03 | 2.59 | 2.59 | 99 | 1009.5 |
| 20260904052958 | 11 | 110 | 0.0 | 0.0 | 0.00 | 2.57 | 2.57 | 99 | 1009.5 |
| 20260904051935 | 11 | 110 | 0.0 | 0.0 | 0.00 | 2.57 | 2.57 | 99 | 1009.5 |
| 20260904050908 | 11 | 110 | 0.0 | 0.0 | 0.00 | 2.57 | 2.57 | 99 | 1009.4 |
| 20260904045900 | 11 | 110 | 0.0 | 0.0 | 0.00 | 2.57 | 2.57 | 99 | 1009.6 |
| 20260904044834 | 11 | 110 | 0.0 | 0.0 | 0.00 | 2.57 | 2.57 | 99 | 1009.6 |
| 20260904043809 | 11 | 110 | 0.0 | 0.0 | 0.00 | 2.57 | 2.57 | 99 | 1009.7 |
| 20260904042806 | 11 | 110 | 0.0 | 0.0 | 0.00 | 2.57 | 2.57 | 99 | 1009.5 |
| 20260904041804 | 11 | 110 | 0.0 | 0.0 | 0.00 | 2.57 | 2.57 | 99 | 1009.6 |
| 20260904040750 | 11 | 110 | 0.0 | 0.0 | 0.00 | 2.57 | 2.57 | 99 | 1009.6 |